Regional Weather Roundup
Issued by NWS

Home | Current Version | Previous Version | Text Only | Print | Product List | Glossary Off
Versions: 1 2 3 4 5 6 7 8 9 10 11 12 13 14 15 16 17 18 19 20 21 22 23 24 25 26 27 28 29 30 31 32 33 34 35 36 37 38 39 40 41 42 43 44 45 46 47 48 49 50

000
ASUS45 KTFX 200804
RWRMT
MONTANA HOURLY WEATHER ROUNDUP
NATIONAL WEATHER SERVICE GREAT FALLS MT
204 AM MDT SUN APR 20 2014

NOTE: "FAIR" INDICATES FEW OR NO CLOUDS BELOW 12000 FEET WITH NO
SIGNIFICANT WEATHER AND/OR OBSTRUCTIONS TO VISIBILITY.

* THESE STATIONS ARE NOT UNDER NWS QUALITY CONTROL. THEY DO NOT
   REPORT WEATHER SUCH AS PRECIPITATION OR FOG.

MTZ001>007-043-200900-
WEST OF THE DIVIDE
CITY           SKY/WX    TMP DP  RH WIND       PRES   REMARKS
KALISPELL      MOCLDY    46  30  54 SW14      29.96S
MISSOULA       CLOUDY    45  34  65 W6        30.09R
BUTTE          CLOUDY    46  21  37 NW14G22   29.97R
MULLAN PASS    LGT SNOW  30  27  89 SW13G24   30.01R WCI  20
* ESSEX        N/A       36  34  92 SW2        N/A
* LINCOLN      N/A       45  31  58 SW8G20     N/A
* LOOKOUT PASS N/A       38  30  73 SE7G18     N/A   WCI  33
* POLSON       N/A       41  29  62 S4G11      N/A
* SEELEY LAKE  N/A       40  34  79 N4G16      N/A
* THOMP F APT  PTCLDY    43  16  34 N3         N/A
$$

MTZ008-052>055-200900-
SOUTHWEST MONTANA
CITY           SKY/WX    TMP DP  RH WIND       PRES   REMARKS
BOZEMAN        MOCLDY    43  27  53 E6        29.88S
DILLON         CLOUDY    48  16  28 S12       29.92R
W YELLOWSTONE  N/A       29  24  82 N/A        N/A
* THREE FORKS  CLOUDY    48  21  34 N/A        N/A
* BOULDER HILL N/A       45  18  34 NE9G17     N/A
* MONIDA PASS  N/A       47  14  26 S15        N/A
* RAYNOLDS PAS N/A       43  22  43 SE15       N/A
* WHITEHALL    N/A       51  15  24 NW4G12     N/A
* WISE RIVER   N/A       39  27  62 S6G12      N/A   WCI  35
$$

MTZ009>010-012-014-046-048-049-054-200900-
EAST SLOPES AND CENTRAL MONTANA
CITY           SKY/WX    TMP DP  RH WIND       PRES   REMARKS
CUT BANK       CLOUDY    43  30  60 SW25G35   29.88R
GREAT FALLS    MOCLDY    48  25  41 W15       29.86R
HELENA         MOCLDY    52  27  38 W17G25    29.93R
MALMSTROM AFB  MOCLDY    46  21  37 SW15      29.83R
* CONRAD       MOCLDY    48  30  50 W24G36     N/A
* DEARBORN     N/A       45  24  44 N/A        N/A
* MONARCH      N/A       37  16  42 S10        N/A   WCI  30
* PENDROY      N/A       43  28  56 W21G27     N/A
* ROGERS PASS  N/A       40  28  62 SE10G24    N/A   WCI  34
* SAINT MARY   N/A       34  33  96 SE4G15     N/A
* SWEET GRASS  N/A       43  33  68 W34G45     N/A
$$

MTZ011-013-016-021-035-040-045-047-050-051-200900-
NORTH CENTRAL MONTANA
CITY           SKY/WX    TMP DP  RH WIND       PRES   REMARKS
HAVRE          CLOUDY    41  25  53 NE6       29.77F
LEWISTOWN      MOCLDY    39  25  57 SE7       29.81F WCI  34
* CHESTER      N/A       40  21  47 N2         N/A
* DENTON       N/A       37  22  55 SE8        N/A   WCI  31
* GEYSER       N/A       37  22  55 SW9        N/A   WCI  30
* JUDITH GAP   N/A       40  22  49 SW6        N/A   WCI  36
* LOMA         N/A       46  20  36 S1G6       N/A
$$

MTZ017>020-022>027-061-062-200900-
NORTHEAST MONTANA
CITY           SKY/WX    TMP DP  RH WIND       PRES   REMARKS
GLASGOW        CLOUDY    43  30  60 SE14      29.83F
GLENDIVE       CLEAR     37  21  52 W3        29.90F
JORDAN         PTCLDY    36  28  73 CALM      29.83F
SIDNEY         PTCLDY    32  27  82 CALM      29.91F
WOLF POINT     CLEAR     34  27  76 NE3       29.87F
* BEAVER HILL  N/A       47  23  39 SE17       N/A
* CIRCLE       N/A       45  26  47 N/A        N/A
* LINDSAY DVD  N/A       41  21  45 E2         N/A
* NAVAJO       N/A       39  28  65 S7         N/A   WCI  34
* SACO         N/A       32  25  75 N1G6       N/A
$$

MTZ028>042-056>058-200900-
SOUTHCENTRAL AND SOUTHEAST MONTANA
CITY           SKY/WX    TMP DP  RH WIND       PRES   REMARKS
BAKER          CLEAR     37  27  67 SE10      29.92F WCI  30
BILLINGS       MOCLDY    48  28  46 SW9       29.84F
LIVINGSTON     MOCLDY    54  21  27 W16G30    29.86R
MILES CITY     CLEAR     48  28  46 SE13      29.86F
* LAUREL APT   MOCLDY    46  27  48 SW6        N/A
* ROUNDUP APT  MOCLDY    46  25  44 N/A        N/A
* HYSHAM       N/A       56  21  26 S7G13      N/A
* LAME DEER    N/A       50  26  39 S9G14      N/A
* REED POINT   N/A       37  30  76 N/A        N/A
* ROSCOE HILL  N/A       54   7  15 S8         N/A
$$

REGIONAL REPORTS...DAKOTAS
CITY           SKY/WX    TMP DP  RH WIND       PRES   REMARKS
WILLISTON      CLEAR     30  28  92 CALM      29.91F
DICKINSON      CLEAR     36  25  64 S12       29.92F WCI  28
CROSBY         CLEAR     32  32 100 S6        29.91F WCI  26
TIOGA          CLEAR     30  30 100 E3        29.96S
WATFORD CITY   CLEAR     32  28  85 CALM      29.90F
BISMARCK       CLEAR     34 N/A N/A NE5       29.99F WCI  29
GRAND FORKS    CLEAR     32  28  85 S5        30.00F WCI  27
FARGO          CLEAR     37  34  89 CALM      30.02S
BUFFALO SD     CLEAR     43  28  56 S9        29.88F
RAPID CITY     PTCLDY    41  28  60 S5        29.96F
$$

REGIONAL REPORTS...WYOMING/IDAHO/WASHINGTON
CITY           SKY/WX    TMP DP  RH WIND       PRES   REMARKS
GILLETTE       CLEAR     45  32  60 S14       29.93F
SHERIDAN       CLEAR     36  30  79 S6        29.90F WCI  31
CODY           PTCLDY    48  23  37 SW3       29.94R
YELLOWSTONE LA PTCLDY    25  19  78 NW3       30.10S
SALMON         MOCLDY    54  25  33 NW13G22   29.98R
MULLAN PASS    LGT SNOW  30  27  89 SW13G24   30.01S WCI  20
SPOKANE        CLEAR     43  32  65 SW22      30.05R
$$

REGIONAL REPORTS...ALBERTA
CITY           SKY/WX    TMP DP  RH WIND       PRES   REMARKS
EDMONTON       LGT RAIN  45  34  65 NE9       29.72R

$$




USA.gov is the U.S. government's official web portal to all federal, state and local government web resources and services.